[ hide orbit diagram ]
For accurate long-term ephemerides, please instead use our Horizons system.This orbit viewer was implemented using two-body methods, and hence should not be used for determining accurate long-term trajectories (over several years or decades) or planetary encounter circumstances.
Orbital Elements at Epoch 2459200.5 (2020-Dec-17.0) TDB
Reference: JPL 21 (heliocentric ecliptic J2000)
Element | Value | Uncertainty (1-sigma) | Units |
e | .2403313424625856 | 3.8096e-08 | |
a | 2.378767938277254 | 7.6464e-09 | au |
q | 1.807075446264125 | 9.0856e-08 | au |
i | 4.424840457646562 | 4.4781e-06 | deg |
node | 10.45284391581888 | 4.5211e-05 | deg |
peri | 346.6742321030815 | 4.5808e-05 | deg |
M | 330.1671143524155 | 7.8213e-06 | deg |
tp | 2459311.550189507152 (2021-Apr-07.05018951) | 2.9352e-05 | TDB |
period | 1340.067088877522 3.67 | 6.4614e-06 1.769e-08 | d yr |
n | .2686432664364186 | 1.2953e-09 | deg/d |
Q | 2.950460430290383 | 9.4841e-09 | au |
|
| | Orbit Determination Parameters
Additional Information
|
[ hide covariance matrix ]
Orbital Elements at Epoch 2456975.5 (2014-Nov-14.0) TDB
Reference: JPL 21 (heliocentric ecliptic J2000)
Element | Value | Uncertainty (1-sigma) | Units |
e | .2387337731199026 | 3.7854e-08 | |
q | 1.811571671516943 | 9.004e-08 | au |
tp | 2456631.388947930508 (2013-Dec-04.88894793) | 2.6869e-05 | TDB |
node | 10.54732571673312 | 4.5295e-05 | deg |
peri | 346.589587947894 | 4.5908e-05 | deg |
i | 4.420853592879538 | 4.4711e-06 | deg |
|
| | Orbit Determination Parameters
Additional Information
|
Orbit Covariance (6×6)
|
|
e |
q |
tp |
node |
peri |
i |
e |
1.432903981252263E-15 |
-3.401237720236811E-15 |
2.133949895757646E-13 |
1.184603963871714E-14 |
2.392912995882069E-14 |
-9.657397156634348E-16 |
q |
-3.401237720236811E-15 |
8.107213116851856E-15 |
-5.052614591448116E-13 |
-2.862131142616491E-14 |
-5.344425175343663E-14 |
2.329379058520238E-15 |
tp |
2.133949895757646E-13 |
-5.052614591448116E-13 |
7.21930060595691E-10 |
6.168474847872441E-12 |
2.076082722157582E-10 |
5.9016286577519E-13 |
node |
1.184603963871714E-14 |
-2.862131142616491E-14 |
6.168474847872441E-12 |
2.051605920252484E-9 |
-2.043653419740794E-9 |
2.939357026421113E-12 |
peri |
2.392912995882069E-14 |
-5.344425175343663E-14 |
2.076082722157582E-10 |
-2.043653419740794E-9 |
2.107511765228728E-9 |
-2.752658553059897E-12 |
i |
-9.657397156634348E-16 |
2.329379058520238E-15 |
5.9016286577519E-13 |
2.939357026421113E-12 |
-2.752658553059897E-12 |
1.999097830957485E-11 |
|
Physical Parameter Table
Parameter |
Symbol |
Value |
Units |
Sigma |
Reference |
Notes |
absolute magnitude |
H |
16.34 |
|
n/a |
E2021B10 |
|
|
79289 (1995 TY6) Discovered 1995-Oct-15 by Spacewatch at Kitt Peak |
Reference: 20040504/Numbers.arc | Last Updated: 2004-07-16 |
|
[ show close-approach data ]
|